Weather in Kukarka

Russia / Omsk Oblast     56°56′22″N   75°03′40″E
temp.,
°C
wind,
m/s
gust,
m/s
humid.,
%
clouds,
%
prec.,
mm/h
press.,
hPa
HPBL,
m
15 may, sat
sat1500:00+14sw4135879 0.0 1020255
03:00+12wnw227486 0.1 102043
06:00+13ssw4108152 1.8 1019261
09:00+18wsw475924 0.3 1018365
12:00+26w473798 0.9 10161077
15:00+29wnw5928100 0.0 10153494
18:00+25wsw3741100 0.1 10151350
21:00+17wsw257967 0.5 101592
16 may, sun
sun1600:00+16wnw41273100 0.5 1015289
03:00+14wnw3683100 0.1 1015115
06:00+14w1185100 0.4 101231
09:00+20wnw3663100 0.0 1012551
12:00+23wnw61047100 0.0 10121890
15:00+22nw685480 0.4 10131698
18:00+20n48675 1.3 10141137
21:00+15nne25798 0.0 1016106
17 may, mon
mon1700:00+12ese23965 0.0 101753
03:00+11sse23975 0.0 101864
06:00+12ssw26945 0.0 1018185
09:00+19sw486473 0.0 1016638
12:00+25wsw6944100 0.1 10131184
15:00+30wnw61126100 0.0 10113285
18:00+28nw4931100 0.0 10101717
21:00+21nw51450100 0.1 1010506
18 may, tue
tue1800:00+14wnw1191100 0.4 101240
03:00+13w2108828 0.0 1010290
06:00+14wnw412863 0.0 1010608
09:00+18nw4663100 0.0 1011747
12:00+23wnw3642100 0.0 10101644
15:00+22w58485 0.0 10091259
18:00+23nw4645100 0.1 10081875
21:00+14wsw0197100 10.1 100981
19 may, wed
wed1900:00+13ne389794 11.7 1009355
03:00+12ne3895100 1.4 1010560
06:00+10nne5994100 1.8 1012679
09:00+10n51092100 0.2 1015713
12:00+14nne585661 0.3 10161787
15:00+16n693691 0.0 10162488
18:00+15n58395 0.0 10182041
21:00+9n4104828 0.0 1021426